Location: *
(45.1961°N, 1.9694°E)
Time: 09:10:28
(UTC+00:00)

Cosmos 2322 Rocket - Pass Details

Date: 25 August 2019
Orbit: 834 x 850 km, 71.0° (Epoch: 19 September)

Event Time Altitude Azimuth Distance (km) Brightness Sun altitude
Rises 20:48:15 0° 341° (NNW) 3,402 6.4 -20.2°
Reaches altitude 10° 20:51:12 10° 355° (N) 2,461 5.2 -20.6°
Maximum altitude 20:55:42 24° 49° (NE) 1,676 3.7 -21.2°
Enters shadow 20:57:17 21° 73° (ENE) 1,789 3.6 -21.4°
